GW2700 Weather Reports


time (UTC)temp
F
wind
direction
speed
knots
gust
knots
rain 1hr
in
rain 24hr
in
rain mn
in
humidity
%
barometer
mb
20260506145826 59 247 0.9 1.7 0.00 0.00 0.00 85 1008.7
20260506145323 59 24 0.9 0.9 0.00 0.00 0.00 86 1008.6
20260506144820 59 32 0.9 0.9 0.00 0.00 0.00 86 1008.5
20260506144317 59 244 0.9 1.7 0.00 0.00 0.00 85 1008.5
20260506143815 59 353 1.7 2.6 0.00 0.00 0.00 86 1008.3
20260506143312 59 341 1.7 1.7 0.00 0.00 0.00 86 1008.3
20260506142810 59 65 2.6 2.6 0.00 0.00 0.00 86 1007.8
20260506142308 59 339 0.9 1.7 0.00 0.00 0.00 86 1008.0
20260506141806 59 18 1.7 1.7 0.00 0.00 0.00 86 1008.0
20260506141304 59 38 0.9 1.7 0.00 0.00 0.00 87 1007.9
20260506140801 59 39 1.7 1.7 0.00 0.00 0.00 87 1008.1
20260506140258 59 34 1.7 1.7 0.00 0.00 0.00 89 1008.0
20260506135755 59 11 1.7 1.7 0.00 0.00 0.00 88 1007.8
20260506135251 59 48 1.7 1.7 0.00 0.00 0.00 89 1007.6
20260506134748 59 207 1.7 2.6 0.00 0.00 0.00 89 1007.7
20260506134244 59 43 1.7 1.7 0.00 0.00 0.00 90 1007.8
20260506133742 60 354 4.3 7.0 0.00 0.00 0.00 89 1007.8
20260506133238 60 24 1.7 2.6 0.00 0.00 0.00 89 1007.7
20260506132735 60 326 0.0 0.9 0.00 0.00 0.00 88 1007.7
20260506132232 61 18 1.7 1.7 0.00 0.00 0.00 87 1007.4
20260506131730 61 47 0.9 0.9 0.00 0.00 0.00 87 1007.5
20260506131226 61 12 0.9 0.9 0.00 0.00 0.00 87 1007.5
20260506130723 61 280 0.9 1.7 0.00 0.00 0.00 87 1007.4
20260506130220 62 12 0.0 0.9 0.00 0.00 0.00 87 1007.2
20260506125718 62 237 0.9 0.9 0.00 0.00 0.00 86 1007.2
20260506125215 62 31 0.0 0.9 0.00 0.00 0.00 87 1007.2
20260506124713 62 35 0.9 0.9 0.00 0.00 0.00 86 1006.8
20260506124211 63 33 1.7 2.6 0.00 0.00 0.00 86 1006.9
20260506123708 63 233 0.9 0.9 0.00 0.00 0.00 87 1007.1
20260506123207 63 30 0.0 0.9 0.00 0.00 0.00 87 1006.4
20260506122703 63 317 0.0 0.0 0.00 0.00 0.00 87 1006.6
20260506122201 63 354 0.9 1.7 0.00 0.00 0.00 87 1006.6
20260506121659 63 18 1.7 1.7 0.00 0.00 0.00 87 1006.5
20260506121155 63 40 1.7 1.7 0.00 0.00 0.00 86 1006.8
20260506120653 64 41 0.9 0.9 0.00 0.00 0.00 86 1006.2
20260506120150 64 342 0.9 0.9 0.00 0.00 0.00 85 1006.4
20260506115648 65 20 0.9 0.9 0.00 0.00 0.00 85 1006.0
20260506115146 65 45 0.9 0.9 0.00 0.00 0.00 84 1006.0
20260506114643 66 20 0.0 0.9 0.00 0.00 0.00 83 1005.8
20260506114141 66 9 0.9 0.9 0.00 0.00 0.00 82 1005.7
20260506113639 67 252 0.9 0.9 0.00 0.00 0.00 81 1006.0
20260506113136 67 45 0.9 0.9 0.00 0.00 0.00 82 1005.7
20260506112632 68 25 0.9 1.7 0.00 0.00 0.00 81 1005.6
20260506112130 68 258 0.0 0.9 0.00 0.00 0.00 81 1005.2
20260506111627 69 68 0.0 0.9 0.00 0.00 0.00 80 1005.3
20260506111125 69 357 0.9 0.9 0.00 0.00 0.00 80 1005.2
20260506110622 69 226 0.0 0.0 0.00 0.00 0.00 80 1005.1
20260506110120 70 278 1.7 1.7 0.00 0.00 0.00 81 1005.2
20260506105616 69 261 0.0 0.9 0.00 0.00 0.00 81 1005.2
20260506105113 70 350 0.9 0.9 0.00 0.00 0.00 80 1005.0
20260506104611 70 232 0.0 0.9 0.00 0.00 0.00 80 1004.8
20260506104108 71 259 0.9 0.9 0.00 0.00 0.00 80 1005.0
20260506103606 72 38 0.9 1.7 0.00 0.00 0.00 79 1004.8
20260506103102 75 6 0.9 0.9 0.00 0.00 0.00 79 1004.8
20260506102600 75 248 0.0 0.9 0.00 0.00 0.00 88 1004.6
20260506102058 75 243 0.0 0.9 0.00 0.00 0.00 87 1004.6
20260506101554 75 250 0.9 0.9 0.00 0.00 0.00 87 1004.7
20260506101051 75 257 0.0 0.0 0.00 0.00 0.00 88 1004.6
20260506100549 75 249 1.7 1.7 0.00 0.00 0.00 88 1004.6
20260506100047 75 222 0.9 0.9 0.00 0.00 0.00 88 1004.4
20260506095546 75 225 1.7 1.7 0.00 0.00 0.00 88 1004.6
20260506095042 75 231 0.9 1.7 0.00 0.00 0.00 88 1004.4
20260506094540 75 258 0.9 0.9 0.00 0.00 0.00 87 1004.4
20260506094037 75 133 1.7 1.7 0.00 0.00 0.00 87 1004.4
20260506093536 75 224 0.9 0.9 0.00 0.00 0.00 87 1004.4
20260506093033 75 230 0.9 1.7 0.00 0.00 0.00 87 1004.4
20260506092530 75 184 0.0 0.9 0.00 0.00 0.00 87 1004.3
20260506092027 75 257 0.9 0.9 0.00 0.00 0.00 87 1004.4
20260506091525 75 231 0.0 0.9 0.00 0.00 0.00 88 1004.3
20260506091022 75 225 0.9 0.9 0.00 0.00 0.00 88 1004.3
20260506090520 75 208 0.9 0.9 0.00 0.00 0.00 88 1004.2
20260506090016 75 233 0.9 0.9 0.00 0.00 0.00 88 1004.5
20260506085513 75 247 0.9 0.9 0.00 0.00 0.00 88 1004.2
20260506085009 75 321 0.9 0.9 0.00 0.00 0.00 88 1004.3
20260506084506 75 227 1.7 1.7 0.00 0.00 0.00 88 1004.2
20260506084002 75 256 0.9 0.9 0.00 0.00 0.00 88 1004.2
20260506083500 75 249 0.9 1.7 0.00 0.00 0.00 88 1004.1
20260506082957 75 252 0.9 0.9 0.00 0.00 0.00 88 1004.2
20260506082454 75 235 0.0 0.9 0.00 0.00 0.00 88 1004.2
20260506081949 75 276 1.7 1.7 0.00 0.00 0.00 88 1004.0
20260506081448 75 247 1.7 2.6 0.00 0.00 0.00 88 1004.2
20260506080945 75 235 1.7 1.7 0.00 0.00 0.00 88 1004.2
20260506080442 75 181 1.7 1.7 0.00 0.00 0.00 88 1004.2
20260506073426 75 236 0.9 1.7 0.00 0.00 0.00 87 1004.1
20260506072923 75 254 0.9 0.9 0.00 0.00 0.00 87 1004.3
20260506072420 75 264 0.9 1.7 0.00 0.00 0.00 87 1004.4
20260506071918 75 253 0.0 0.0 0.00 0.00 0.00 87 1004.3
20260506071416 75 251 0.9 1.7 0.00 0.00 0.00 87 1004.1
20260506070912 75 254 0.9 0.9 0.00 0.00 0.00 87 1004.2
20260506070409 75 274 0.9 1.7 0.00 0.00 0.00 86 1004.1
20260506062347 75 242 0.0 0.9 0.00 0.00 0.00 85 1004.4
20260506061842 75 298 0.9 0.9 0.00 0.00 0.00 85 1004.4
20260506061339 75 235 0.9 1.7 0.00 0.00 0.00 85 1004.1
20260506060837 76 239 0.9 1.7 0.00 0.00 0.00 85 1004.0
20260506060335 76 235 0.9 1.7 0.00 0.00 0.00 84 1004.3
20260506051307 77 236 0.9 0.9 0.00 0.00 0.00 82 1004.4
20260506050805 77 232 1.7 2.6 0.00 0.00 0.00 82 1004.1
20260506050302 77 279 4.3 7.0 0.00 0.00 0.00 82 1004.0
20260506044752 77 224 2.6 5.2 0.00 0.00 0.00 82 1004.1
20260506044250 77 254 0.9 0.9 0.00 0.00 0.00 81 1004.0
20260506043747 77 295 1.7 1.7 0.00 0.00 0.00 82 1004.1
20260506043244 77 245 0.9 0.9 0.00 0.00 0.00 82 1004.0
20260506042743 77 182 1.7 2.6 0.00 0.00 0.00 82 1004.0
20260506042242 77 245 0.9 1.7 0.00 0.00 0.00 82 1004.0
20260506041739 77 320 0.0 0.9 0.00 0.00 0.00 81 1003.6
20260506041236 77 230 0.9 1.7 0.00 0.00 0.00 82 1003.5
20260506040734 77 258 0.9 0.9 0.00 0.00 0.00 82 1003.5
20260506040231 77 229 0.9 0.9 0.00 0.00 0.00 81 1003.5
20260506035727 77 219 0.9 0.9 0.00 0.00 0.00 81 1003.4
20260506035224 77 176 0.9 0.9 0.00 0.00 0.00 81 1003.1
20260506034721 77 212 0.9 0.9 0.00 0.00 0.00 81 1003.0
20260506034218 77 104 2.6 2.6 0.00 0.00 0.00 81 1003.2
20260506033716 77 119 0.9 0.9 0.00 0.00 0.00 81 1003.2
20260506033212 78 263 0.9 0.9 0.00 0.00 0.00 80 1002.8
20260506032709 78 231 0.9 1.7 0.00 0.00 0.00 80 1002.9
20260506032206 78 250 0.9 0.9 0.00 0.00 0.00 80 1002.7
20260506031703 78 236 0.0 0.9 0.00 0.00 0.00 80 1002.9
20260506031200 78 190 0.9 0.9 0.00 0.00 0.00 80 1003.0
20260506030659 78 198 0.9 0.9 0.00 0.00 0.00 80 1002.7
20260506030155 78 174 0.0 0.9 0.00 0.00 0.00 79 1002.5
20260506025652 79 223 0.9 1.7 0.00 0.00 0.00 79 1002.7
20260506025148 79 248 0.9 0.9 0.00 0.00 0.00 78 1002.8
20260506024646 79 249 0.9 0.9 0.00 0.00 0.00 78 1002.7
20260506024142 79 267 0.9 1.7 0.00 0.00 0.00 78 1002.7
20260506023638 79 180 1.7 1.7 0.00 0.00 0.00 78 1002.6
20260506023136 79 258 0.9 1.7 0.00 0.00 0.00 78 1002.6
20260506022633 79 249 0.9 0.9 0.00 0.00 0.00 78 1002.5
20260506022130 79 198 0.0 0.0 0.00 0.00 0.00 78 1002.5
20260506021628 79 231 0.9 0.9 0.00 0.00 0.00 78 1002.6
20260506021125 79 246 0.9 1.7 0.00 0.00 0.00 77 1002.5
20260506020622 80 258 0.9 0.9 0.00 0.00 0.00 77 1002.6
20260506020120 80 221 0.9 0.9 0.00 0.00 0.00 77 1002.5
20260506015617 80 168 0.9 0.9 0.00 0.00 0.00 77 1002.6
20260506015114 80 257 0.9 0.9 0.00 0.00 0.00 76 1002.3
20260506014612 80 269 0.9 0.9 0.00 0.00 0.00 76 1002.3
20260506014107 80 198 0.9 1.7 0.00 0.00 0.00 76 1002.3
20260506013605 80 259 0.9 1.7 0.00 0.00 0.00 75 1002.4
20260506013102 80 243 0.9 1.7 0.00 0.00 0.00 75 1002.2
20260506012558 80 268 0.9 0.9 0.00 0.00 0.00 76 1002.2
20260506012055 81 255 0.9 0.9 0.00 0.00 0.00 75 1002.3
20260506011553 81 244 0.9 0.9 0.00 0.00 0.00 75 1002.1
20260506011048 80 258 0.9 1.7 0.00 0.00 0.00 75 1002.0
20260506010542 81 234 0.9 0.9 0.00 0.00 0.00 74 1002.0
20260506010038 81 245 0.9 0.9 0.00 0.00 0.00 74 1002.0
20260506005535 81 219 0.0 0.9 0.00 0.00 0.00 74 1002.0
20260506005031 81 241 0.9 0.9 0.00 0.00 0.00 74 1001.9
20260506004529 81 238 0.9 0.9 0.00 0.00 0.00 73 1001.4
20260506004026 81 276 0.9 0.9 0.00 0.00 0.00 73 1001.5
20260506003522 81 267 0.9 1.7 0.00 0.00 0.00 73 1001.5
20260506003018 82 235 0.9 1.7 0.00 0.00 0.00 72 1001.5
20260506002514 82 261 0.9 0.9 0.00 0.00 0.00 72 1001.3
20260506002010 82 239 0.9 1.7 0.00 0.00 0.00 72 1001.1
20260506001507 82 264 1.7 2.6 0.00 0.00 0.00 71 1001.4
20260506001004 82 267 0.9 0.9 0.00 0.00 0.00 71 1001.5
20260506000502 82 247 0.9 1.7 0.00 0.00 0.00 71 1001.5
20260505235958 83 242 1.7 1.7 0.00 0.00 0.00 71 1001.4
20260505235456 83 191 0.9 0.9 0.00 0.00 0.00 70 1001.3
20260505234953 83 242 1.7 1.7 0.00 0.00 0.00 70 1001.6
20260505234450 83 224 0.0 0.9 0.00 0.00 0.00 70 1001.4
20260505233947 83 245 0.9 0.9 0.00 0.00 0.00 70 1001.3
20260505233444 83 234 0.9 0.9 0.00 0.00 0.00 70 1001.2
20260505232942 83 254 1.7 1.7 0.00 0.00 0.00 69 1001.3
20260505232440 83 135 1.7 2.6 0.00 0.00 0.00 69 1001.3
20260505231937 83 244 1.7 1.7 0.00 0.00 0.00 69 1001.2
20260505231434 83 279 3.5 3.5 0.00 0.00 0.00 69 1001.4
20260505230932 83 279 1.7 2.6 0.00 0.00 0.00 69 1001.1
20260505230429 83 249 1.7 1.7 0.00 0.00 0.00 69 1001.0
20260505225925 84 335 1.7 2.6 0.00 0.00 0.00 68 1001.2
20260505225423 84 274 2.6 3.5 0.00 0.00 0.00 68 1001.0
20260505224918 84 237 2.6 3.5 0.00 0.00 0.00 68 1001.1
20260505224416 84 240 1.7 2.6 0.00 0.00 0.00 68 1001.1
20260505223912 84 183 1.7 1.7 0.00 0.00 0.00 68 1000.9
20260505223410 84 288 1.7 1.7 0.00 0.00 0.00 68 1001.1
20260505222906 84 238 2.6 3.5 0.00 0.00 0.00 68 1001.1
20260505222402 84 95 2.6 3.5 0.00 0.00 0.00 68 1000.7
20260505221859 83 265 1.7 1.7 0.00 0.00 0.00 68 1000.9
20260505221355 84 217 3.5 5.2 0.00 0.00 0.00 67 1000.9
20260505220853 83 244 3.5 3.5 0.00 0.00 0.00 68 1001.0
20260505220350 83 179 2.6 5.2 0.00 0.00 0.00 68 1001.0
20260505215847 84 286 3.5 6.1 0.00 0.00 0.00 68 1001.1
20260505215345 84 318 1.7 1.7 0.00 0.00 0.00 68 1001.2
20260505214843 83 254 1.7 1.7 0.00 0.00 0.00 68 1001.3
20260505214340 84 239 3.5 5.2 0.00 0.00 0.00 67 1001.4
20260505213837 83 233 3.5 3.5 0.00 0.00 0.00 68 1001.6
20260505213335 83 240 0.9 1.7 0.00 0.00 0.00 68 1001.5
20260505212831 83 229 0.9 1.7 0.00 0.00 0.00 69 1001.6
20260505212328 83 294 3.5 3.5 0.00 0.00 0.00 68 1001.7
20260505211824 83 311 1.7 2.6 0.00 0.00 0.00 68 1001.8
20260505211322 83 255 4.3 7.0 0.00 0.00 0.00 68 1001.7
20260505210818 83 262 1.7 1.7 0.00 0.00 0.00 69 1001.9
20260505210315 83 291 3.5 5.2 0.00 0.00 0.00 68 1001.9
20260505205812 82 133 1.7 2.6 0.00 0.00 0.00 69 1001.8
20260505205310 82 169 2.6 3.5 0.00 0.00 0.00 70 1001.9
20260505204807 82 176 1.7 2.6 0.00 0.00 0.00 69 1001.9
20260505204305 82 281 3.5 5.2 0.00 0.00 0.00 70 1001.9
20260505203802 82 257 1.7 2.6 0.00 0.00 0.00 70 1002.0
20260505203259 82 305 4.3 7.0 0.00 0.00 0.00 69 1001.9
20260505202754 83 287 2.6 3.5 0.00 0.00 0.00 68 1002.0
20260505202251 82 240 2.6 2.6 0.00 0.00 0.00 69 1002.3
20260505201747 82 167 4.3 7.0 0.00 0.00 0.00 70 1002.3
20260505201245 82 261 1.7 1.7 0.00 0.00 0.00 69 1002.3
20260505200743 82 357 2.6 3.5 0.00 0.00 0.00 70 1002.1
20260505200240 81 278 1.7 1.7 0.00 0.00 0.00 71 1002.2
20260505195735 81 285 2.6 2.6 0.00 0.00 0.00 70 1002.3
20260505195233 82 293 2.6 3.5 0.00 0.00 0.00 69 1002.3
20260505194730 82 254 3.5 5.2 0.00 0.00 0.00 69 1002.5
20260505194227 82 154 4.3 6.1 0.00 0.00 0.00 69 1002.4
20260505193722 82 243 3.5 3.5 0.00 0.00 0.00 69 1002.4
20260505193220 81 281 1.7 2.6 0.00 0.00 0.00 71 1002.5
20260505192718 81 171 3.5 5.2 0.00 0.00 0.00 72 1002.6
20260505192216 80 313 3.5 6.1 0.00 0.00 0.00 72 1002.4
20260505191714 81 254 5.2 7.8 0.00 0.00 0.00 71 1002.5
20260505191212 80 259 1.7 1.7 0.00 0.00 0.00 72 1002.7
20260505190708 80 265 2.6 5.2 0.00 0.00 0.00 73 1002.6
20260505190207 80 244 2.6 3.5 0.00 0.00 0.00 73 1002.5
20260505185704 80 245 5.2 7.0 0.00 0.00 0.00 73 1002.6
20260505185201 79 231 3.5 3.5 0.00 0.00 0.00 74 1002.6
20260505184657 79 205 5.2 7.0 0.00 0.00 0.00 74 1002.8
20260505184154 79 257 1.7 2.6 0.00 0.00 0.00 74 1003.0
20260505183651 79 251 2.6 2.6 0.00 0.00 0.00 74 1002.6
20260505183149 79 268 5.2 8.7 0.00 0.00 0.00 73 1002.9
20260505182645 80 259 1.7 2.6 0.00 0.00 0.00 72 1003.0
20260505182142 80 242 2.6 3.5 0.00 0.00 0.00 72 1002.8
20260505181638 79 272 3.5 7.0 0.00 0.00 0.00 74 1002.7
20260505181136 79 238 2.6 2.6 0.00 0.00 0.00 73 1003.2
20260505180632 78 236 3.5 6.1 0.00 0.00 0.00 74 1002.9
20260505180130 78 250 5.2 7.0 0.00 0.00 0.00 74 1003.1
20260505175625 78 284 2.6 3.5 0.00 0.00 0.00 75 1003.2
20260505175122 78 254 1.7 1.7 0.00 0.00 0.00 75 1003.2
20260505174618 78 248 0.9 1.7 0.00 0.00 0.00 75 1003.3
20260505174115 78 258 4.3 7.0 0.00 0.00 0.00 75 1002.9
20260505173611 78 266 2.6 3.5 0.00 0.00 0.00 74 1003.1
20260505173108 78 292 1.7 2.6 0.00 0.00 0.00 75 1002.9
20260505172606 78 264 4.3 6.1 0.00 0.00 0.00 75 1003.0
20260505172103 78 261 4.3 6.1 0.00 0.00 0.00 75 1003.0
20260505171557 77 292 4.3 7.0 0.00 0.00 0.00 76 1003.2
20260505171054 77 257 1.7 2.6 0.00 0.00 0.00 76 1003.1
20260505170551 77 247 2.6 3.5 0.00 0.00 0.00 76 1003.1
20260505170047 77 247 2.6 5.2 0.00 0.00 0.00 76 1003.0
20260505165543 77 229 4.3 5.2 0.00 0.00 0.00 76 1003.4
20260505165039 77 72 3.5 5.2 0.00 0.00 0.00 76 1003.3
20260505164535 77 244 5.2 7.0 0.00 0.00 0.00 76 1003.2
20260505164033 77 280 3.5 5.2 0.00 0.00 0.00 77 1003.3
20260505163531 76 297 2.6 3.5 0.00 0.00 0.00 77 1003.4
20260505163027 76 224 3.5 3.5 0.00 0.00 0.00 77 1003.5
20260505162521 76 257 4.3 6.1 0.00 0.00 0.00 78 1003.6
20260505162018 75 306 1.7 2.6 0.00 0.00 0.00 79 1003.4
20260505161514 75 276 2.6 3.5 0.00 0.00 0.00 80 1003.7
20260505161012 75 234 1.7 1.7 0.00 0.00 0.00 80 1003.3
20260505160510 74 237 2.6 2.6 0.00 0.00 0.00 80 1003.3
20260505152940 73 274 3.5 3.5 0.00 0.00 0.00 81 1003.1
20260505152437 73 271 3.5 6.1 0.00 0.00 0.00 81 1003.3
20260505151938 73 183 2.6 2.6 0.00 0.00 0.00 81 1003.3
20260505151433 73 281 4.3 5.2 0.00 0.00 0.00 81 1003.5
20260505150931 73 293 2.6 3.5 0.00 0.00 0.00 81 1003.6
20260505150427 73 264 2.6 3.5 0.00 0.00 0.00 81 1003.2